Tracking 31027 objects as of 19-Jul-2025
HD Live streaming from Space Station
objects crossing your sky now

STARLINK-31968

Track STARLINK-31968 now!
10-day predictions
STARLINK-31968 is classified as:


NORAD ID: 59927
Int'l Code: 2024-106F
Perigee: 489.3 km
Apogee: 491.0 km
Inclination: 43.0 °
Period: 94.3 minutes
Semi major axis: 6861 km
RCS: Unknown
Launch date: June 1, 2024
Source: United States (US)
Launch site: AIR FORCE EASTERN TEST RANGE (AFETR)
Your satellite tracking list
COSMOS 1656
Track 1 satellite(s)




NASA's NSSDC Master Catalog

Two Line Element Set (TLE):
1 59927U 24106F   25199.32949826  .00001861  00000-0  77127-4 0  9998
2 59927  43.0003 215.7911 0001267 264.9826  95.0881 15.27588713 64731
Source of the keplerian elements: AFSPC